OBJECT D, 61897

Orbit data source: Space-Track

You're viewing an Uncataloged Satellite

Recently launched and/or uncataloged satellites may have evolving metadata. Metadata may include but not limited to: Owner, Maufacturer, Bus, Motor, and Mission.

OBJECT D, 61897 is a Chinese satellite in SSO that was launched on Mon, 11 Nov 2024 UTC via a LIJIAN-1 launch vehicle from the Jiuquan Satellite Launch Center, China (JSC). Unknown objects in Earth's orbit typically refer to objects detected orbiting the Earth but have not yet been identified or cataloged. These objects could be anything from previously untracked satellites, spent rocket stages, debris from satellite collisions, or even natural meteoroids temporarily captured by Earth's gravity.

Loading next visibility...
Identifier
61897, 2024-205D
Orbit
SSO
Country
Flag of CNCN / PRC
Related business
None
Manufacturer
Unknown
Mission
Operational Commercial Imaging
Bus & Motor
Unknown
Mass
Unknown
Launch date (UTC)
2024-11-11 (1 year ago)
Launch vehicle
LIJIAN-1
Launch site
Jiuquan Satellite Launch Center, China (JSC)
Object type
Unknown
Shape & HBR
Box, 0.8 m
Radar Cross Section
2.000 m², Medium (>0.1 m² and < 1m²)

Expand to show TLE details & history
Last TLE update: 7 hours ago

TLE from 7 hours ago
0 OBJECT D
1 61897U 24205D   25306.53699353  .00007746  00000-0  41663-3 0  9990
2 61897  97.4374  17.9135 0014255 124.1369 236.1217 15.15048444 53934
Epoch: 2025-11-02T12:53Z
TLE epoch observation values (Epoch: 2025-11-02T12:53:16.240Z)
Latitude
-0.00005°
Longitude
142.54453°
Altitude
529.407 km
Speed
7.595 km/s
True Right ascension
01h 11m 39s
True Declination
0° 00' 00"
Sunlit
Object was in full shadow at epoch
Visualization orbit readout
Latitude
Unknown
Longitude
Unknown
Altitude
Unknown
Speed
Unknown
Apparent Right ascension
Unknown
Apparent Declination
Unknown
Sunlit
N/A
Visualization observer readout
Local Sidereal Time
16:11:15
Azimuth
Unknown
Elevation
Unknown
Doppler factor
Unknown
Orbital elements
Apogee altitude
527.635 km
Perigee altitude
507.975 km
Semi-major axis
6,895.942 km
Eccentricity
0.00143
Inclination
97.4374°
RAAN
17.9135°
Arg. of periapsis
124.1369°
True anomaly
235.98622°
Mean anomaly
236.1217°
Eccentric anomaly
236.05395°
Mean motion
3.79012 °/min
Orbital period
94.98 mins
BSTAR
0.00041663
Loading maneuver chart data...
Computing Atmospheric mass density...
Loading historical data...
Loading historical data...
Loading historical data...
Loading historical data...
Loading historical data...
Loading historical data...
Loading historical data...

Documentation

Showing up to 5 results
|